Simultaneous Nadir Overpasses (SNOs) Predictions

Prediction of SNOs between GOES-14 and NOAA-20 Satellite Orbit:

Table of predicted SNOs for the next 14.0 days since TLE Epoch: 3/11/2023
Index Date Time (GOES-14) GOES-14 Lat,Lon NOAA-20 Lat,Lon Distance(km) Time Diff (sec)
1 03/11/2023 20:30:13 -0.10,-107.92 0.33,-105.95 224.30 80
2 03/13/2023 08:52:01 0.11,-107.88 0.87,-111.22 380.17 80
3 03/14/2023 08:30:38 0.11,-107.88 -0.18,-106.70 136.06 80
4 03/15/2023 20:52:34 -0.12,-107.93 -1.06,-111.99 463.26 80
5 03/16/2023 20:36:30 -0.12,-107.93 -0.00,-107.47 53.62 80
6 03/19/2023 08:39:34 0.13,-107.90 0.18,-108.20 33.71 80
7 03/20/2023 08:18:10 0.12,-107.90 -0.82,-103.67 482.63 80
8 03/21/2023 20:40:06 -0.13,-107.95 -0.38,-108.97 116.67 80
9 03/22/2023 20:24:03 -0.13,-107.96 0.69,-104.45 400.70 80
10 03/24/2023 08:45:50 0.13,-107.94 0.54,-109.70 201.78 80
